Location: City of Moscow
(46.7306°N, 116.9989°W)
Time: 12:52:09
(UTC+00:00)

Daily predictions for brighter satellites

Satellite Brightness Start Highest point End
(mag) Time Altitude Azimuth Time Altitude Azimuth Time Altitude Azimuth
Cosmos 2360 Rocket 3.6 12:22:59 24° N 12:25:21 34° NE 12:30:25 10° ESE
ATLAS 3B R/B 4.4 12:24:39 21° NNW 12:27:41 26° NNE 12:34:01 10° ENE
Cosmos 1937 Rocket 3.9 12:31:53 51° SSE 12:31:53 51° SSE 12:35:41 10° SSE
Cosmos 2333 Rocket 2.9 12:29:53 37° N 12:31:48 52° ENE 12:37:23 10° SE
USA 59 Rocket 1.9 12:36:56 22° S 12:36:56 22° S 12:39:02 10° SSE
COSMO-SKYMED 1 3.9 12:34:03 10° SE 12:37:48 35° ENE 12:39:12 27° NNE
SL-4 R/B 3.8 12:42:55 22° ENE 12:42:55 22° ENE 12:44:19 10° E
Cosmos 2219 Rocket 3.8 12:38:17 16° N 12:41:50 29° NE 12:46:41 10° ESE
Cosmos 1892 Rocket 3.9 12:38:42 10° S 12:43:00 62° E 12:47:22 10° NNE
SeaSat 1 4.4 12:39:09 10° NNE 12:40:25 17° N 12:40:25 17° N
COSMOS 2455 3.6 12:47:28 36° SSW 12:47:28 36° SSW 12:51:32 10° S
Cosmos 2322 Rocket 2.8 12:46:58 27° N 12:49:54 54° ENE 12:55:27 10° SE
Cosmos 2026 Rocket 4.1 12:48:19 10° S 12:54:20 74° E 13:00:27 10° NNE
SJ-11-01 4.1 12:50:35 10° N 12:55:17 79° WNW 12:55:21 78° W
NOSS 3-1 (A) 4.0 13:10:20 29° NW 13:14:38 84° SW 13:23:35 10° SSE
Meteor 2-3 Rocket 3.7 13:10:47 10° SSW 13:16:27 62° WNW 13:22:05 10° N
NOAA 12 4.0 13:11:52 10° NNE 13:17:10 81° WNW 13:22:25 10° SSW
COSMOS 2406 3.4 13:16:23 39° W 13:17:53 48° WNW 13:23:23 10° NNE
SL-16 R/B 2.2 13:16:46 38° NW 13:18:44 57° WSW 13:24:15 10° S
Cosmos 2082 Rocket 3.2 13:20:37 27° NNW 13:20:37 27° NNW 13:24:35 10° N
Meteor 1-26 Rocket 4.1 13:14:38 11° NNW 13:20:05 83° W 13:25:49 10° S
Cosmos 2058 Rocket 2.9 13:18:34 26° NNW 13:21:03 78° W 13:25:25 10° S
Cosmos 1553 Rocket 4.4 13:15:02 10° N 13:21:25 67° E 13:27:47 10° SSE
Cosmos 841 Rocket 4.1 13:22:02 34° NW 13:22:02 34° NW 13:26:19 10° N
Cosmos 1092 Rocket 3.9 13:16:53 10° SSW 13:23:10 79° W 13:29:25 10° N
SKYMED 2 3.7 13:19:20 10° S 13:23:33 51° W 13:24:24 44° WNW
Nadezhda 4 Rocket 4.3 13:18:38 10° SW 13:24:30 40° WNW 13:30:22 10° N
USA 234 4.1 13:19:06 10° ENE 13:24:58 36° N 13:28:04 24° NW
Meteor 2-20 4.5 13:27:27 10° NNW 13:33:23 54° W 13:39:15 10° SSW
Cosmos 1743 3.7 13:33:06 10° SSE 13:36:08 39° E 13:39:12 10° NNE
Cosmos 2221 3.4 13:38:37 10° N 13:42:39 48° ENE 13:46:38 10° SSE
Cosmos 2278 4.1 13:40:34 25° NW 13:43:22 42° WSW 13:48:37 10° S
SL-08 ROCKET BODY 4.5 13:37:58 10° S 13:43:48 77° E 13:49:38 10° NNE
Cosmos 1484 Rocket 2.3 13:42:38 10° NNE 13:46:03 89° E 13:49:25 10° SSW
Cosmos 1125 Rocket 4.0 13:46:13 10° NNW 13:51:26 59° ENE 13:56:35 10° SE
Cosmos 1758 Rocket 3.5 13:48:16 10° S 13:52:41 88° W 13:57:06 10° N
Cosmos 1437 Rocket 3.6 13:50:51 10° N 13:54:11 43° ENE 13:57:31 10° SSE
BREEZE-M DEB (TANK) 4.4 13:34:46 13° W 13:54:31 76° N 13:59:32 10° ENE
Meteor 2-20 Rocket 4.4 13:49:18 10° NNW 13:54:50 50° W 14:00:18 10° SSW
Helios 1A Rocket 3.4 13:56:41 10° SSW 13:59:35 27° W 14:00:21 25° WNW
NOSS 8 (A) 4.4 13:58:48 29° WNW 13:59:58 48° SW 14:03:13 10° SSE
IRS-1D 4.2 13:56:21 10° N 14:00:44 31° WNW 14:05:10 10° SW
CZ-2D R/B 4.3 14:01:02 10° NNE 14:04:02 38° E 14:07:01 10° S
BREEZE M DEB (TANK) 2.2 14:06:06 11° SW 14:08:19 62° SSE 14:12:50 10° ENE
Cosmos 1707 2.8 14:06:14 10° N 14:09:20 56° E 14:12:24 10° SSE
Cosmos 405 Rocket 2.7 14:06:20 10° SSW 14:09:25 39° WNW 14:12:33 10° N
Cosmos 2360 Rocket 2.6 14:04:46 13° NW 14:09:27 44° WSW 14:14:44 10° S
Cosmos-2242 4.0 14:07:54 16° NW 14:10:15 25° W 14:13:40 10° SW
Okean 1 4.2 14:10:55 18° WNW 14:12:07 22° W 14:14:53 10° SW
COSMO-SKYMED 1 3.6 14:09:56 10° SSW 14:13:12 22° W 14:15:32 15° NW
Cosmos 1626 Rocket 3.9 14:10:50 10° SSW 14:15:03 44° WNW 14:19:16 10° N
Cosmos 2333 Rocket 3.2 14:11:56 14° NW 14:15:46 28° WSW 14:20:31 10° SSW
Cosmos 1833 4.2 14:11:37 10° SW 14:17:13 65° WNW 14:22:55 10° NNE
SL-4 R/B 1.8 14:16:38 17° WNW 14:18:51 48° SSW 14:21:55 10° SE
ATLAS 3B R/B 3.5 14:12:24 10° NW 14:20:11 59° NE 14:27:35 10° ESE
Cosmos 2237 Rocket 3.9 14:16:41 10° N 14:21:26 27° NE 14:26:10 10° ESE
MOS 1 Rocket 4.2 14:17:09 10° NNE 14:22:30 62° E 14:27:41 10° S
IGS 5A 3.7 14:20:10 10° N 14:23:57 42° WNW 14:27:44 10° SW
Cosmos 2219 Rocket 2.4 14:20:34 10° NW 14:26:05 55° WSW 14:31:32 10° S
ARIANE 5 R/B 3.0 14:22:08 10° NNE 14:27:22 70° ESE 14:32:34 10° S
SAR-Lupe-4 3.6 14:27:29 10° NNE 14:31:03 81° ESE 14:34:36 10° SSW
Cosmos 2322 Rocket 3.2 14:28:56 10° NW 14:33:34 26° WSW 14:38:10 10° SSW
BREEZE-M DEB (TANK) 3.3 14:31:10 11° W 14:33:54 62° N 14:41:50 10° E
Meteor 1-10 Rocket 4.4 14:31:51 10° NNW 14:37:45 70° W 14:43:37 10° S
KORONAS-FOTON 3.6 14:34:38 10° NNW 14:37:57 54° W 14:41:15 10° S
Cosmos 1842 2.7 14:37:33 10° NNW 14:40:53 77° W 14:44:11 10° S
Meteor 1-19 Rocket 4.4 14:35:09 10° NNW 14:40:53 62° W 14:46:44 10° S
SAR-Lupe-1 4.1 14:38:14 10° NNE 14:41:52 87° WNW 14:45:27 10° SSW
Cosmos 2322 3.8 14:39:51 10° NNW 14:45:33 90° WSW 14:51:14 10° SSE
CBERS-1 4.5 14:41:51 10° N 14:46:35 39° WNW 14:51:15 10° SW
Cosmos 1812 Rocket 4.2 14:44:07 10° NNW 14:48:02 35° W 14:51:58 10° SSW
Orbus 7S? 3.7 14:45:47 10° WNW 14:48:10 31° SW 14:51:08 10° SSE
ATLAS 2AS CENTAUR R/B 2.7 14:41:53 10° SW 14:48:55 71° NW 14:55:48 10° NE
SMAP 3.3 14:44:57 10° N 14:49:28 50° WNW 14:53:57 10° SW
IRS-P3 4.4 14:44:55 10° NNE 14:50:15 75° ESE 14:55:33 10° S
YAOGAN 11 4.3 14:46:55 10° SSE 14:51:15 74° ENE 14:55:32 10° N
Cosmos 2315 Rocket 4.1 14:45:36 10° NNW 14:51:57 73° W 14:58:13 10° S
Cosmos 1174 4.4 14:46:41 10° NW 14:52:22 82° WSW 14:56:55 10° SSE
